一网星座-0233星 (ONEWEB-0233 )

导读

ONEWEB-0233是英国OneWeb星座项目下的低轨通信卫星,于2021年5月28日发射。作为OneWeb全球卫星互联网组网的组成部分,它运行在近地轨道,单颗重约147.5公斤,配备Ku波段天线,通过低轨布局降低通信延迟,为全球偏远地区、基础设施受损场景提供高速互联网接入服务,助力实现全域网络覆盖,推动全球互联基础设施建设,服务应急通信、偏远区域联网等多元场景。

基本信息
目录编号:
48795
目录名称:
ONEWEB-0233
国际标识:
2021-045AE
轨道中心:
EARTH
卫星名称:
一网星座-0233星
卫星全名:
一网星座-0233星 (ONEWEB-0233 )
卫星状态:
在轨 (已飞行1932 天)
发射日期:
2021-05-28 UTC
国别 :
英国 (GB)
星等 :
--
该卫星已列入 空间交会检测服务 Space Conjunction Data Service (SCDS) ,当前飞行风险评估等级: 无高风险
轨道信息
数据来源 国际轨道数据 AOE轨道数据
星历时间 2026-09-11T07:07:36+0800
15小时前
查看轨道信息
2026-09-06T07:00:00+0800
5天前
查看轨道信息
半长轴 7579.913km 7579.897km
偏心率 0.0002018 0.000238
轨道倾角 87.897° 87.897°
近地点辐角 77.261° 70.190°
升交点赤经 242.129° 243.128°
平近点角 282.875° 358.659°
近地点 1200.246km 1199.955km
远地点 1203.306km 1203.565km
周期 109.460分钟 109.460分钟
每日圈数 13.155472 13.155516
详细信息
平衡模式:
三轴稳定
覆盖范围:
全球
运营商:
一网卫星公司
运营商所在国:
英国
制造商(研发单位):
一网卫星公司
制造商所在国:
英国
使用方式:
暂无
卫星简介
OneWeb卫星网络由648颗重约125公斤的微型卫星组成,运行在1200公里的轨道上。 每颗卫星都能够提供至少每秒8千兆位的吞吐量,以使用其高吞吐量的Ku频段有效载荷为家庭和移动平台提供互联网接入。该卫星仍在工作。
2D轨道图
3D轨道图
轨道高度分析图
轨道倾角分析图
轨道综合分析图
查看轨道综合分析图
与全量物体交会距离演化趋势
与全量物体交会风险概率演化趋势